Regional Weather Roundup
Issued by NWS Upton, NY

Current Version | Previous Version | Text Only | Print | Product List | Glossary On
Versions: 1 2 3 4 5 6 7 8 9 10 11 12 13 14 15 16 17 18 19 20 21 22 23 24 25 26 27 28 29 30 31 32 33 34 35 36 37 38 39 40 41 42 43 44 45 46 47 48 49 50
000 ASUS41 KOKX 301605 RWROKX REGIONAL WEATHER ROUNDUP NATIONAL WEATHER SERVICE NEW YORK NY 1100 AM EST FRI JAN 30 2015 NOTE: "FAIR" INDICATES FEW OR NO CLOUDS BELOW 12,000 FEET WITH NO SIGNIFICANT WEATHER AND/OR OBSTRUCTIONS TO VISIBILITY. NYZ071-072-176-178-NJZ106-104-301700- NEW YORK CITY METRO AREA CITY SKY/WX TMP DP RH WIND PRES REMARKS CENTRAL PARK CLOUDY 34 25 69 W8 29.88F WCI 27 LAGUARDIA APRT FLURRIES 33 27 78 NW15G23 29.85F WCI 23 KENNEDY INTL CLOUDY 35 26 69 NW20G29 29.86F WCI 24 NEWARK/LIBERTY FLURRIES 35 27 72 NW12G20 29.88S WCI 27 BRNX BOT. GARD N/A N/A N/A N/A W14 29.85F TETERBORO FLURRIES 34 26 72 NW10 29.86F WCI 26 $$ NYZ177-179-078>081-301700- LONG ISLAND NEW YORK CITY SKY/WX TMP DP RH WIND PRES REMARKS FARMINGDALE CLOUDY 32 27 81 NW12G20 29.84S WCI 23 ISLIP CLOUDY 32 27 81 NW13 29.81S WCI 22 SHIRLEY MIX PCPN 32 28 85 NW15G22 29.82F WCI 22 WESTHAMPTON CLOUDY 33 29 85 NW13G21 29.81F FOG WCI 24 MONTAUK POINT N/A 33 31 92 W10 29.81S WCI 25 $$ NYZ052-065-067-301700- HUDSON VALLEY CITY SKY/WX TMP DP RH WIND PRES REMARKS WHITE PLAINS FLURRIES 31 25 78 NW15 29.81F WCI 20 NEWBURGH NOT AVBL MONTGOMERY LGT SNOW 32 27 81 NW6 29.84F WCI 26 POUGHKEEPSIE LGT SNOW 30 27 88 CALM 29.86S VSB 1 ALBANY LGT SNOW 29 24 82 W13 29.85S VSB 3/4 WCI 19 $$ NJZ001-105-106-008-010-013-015-019>022-104-301700- NEW JERSEY CITY SKY/WX TMP DP RH WIND PRES REMARKS NEWARK/LIBERTY FLURRIES 35 27 72 NW12G20 29.88S WCI 27 TETERBORO FLURRIES 34 26 72 NW10 29.86F WCI 26 CALDWELL CLOUDY 34 26 72 NW9 29.87F WCI 27 MORRISTOWN PTSUNNY 30 27 86 NW8G18 29.88F WCI 23 SOMERVILLE FLURRIES 35 27 72 NW9 29.88F WCI 28 SUSSEX CLOUDY 34 24 67 NW8G18 29.86F WCI 27 ANDOVER N/A 33 26 75 VRB7 29.87F WCI 27 TRENTON CLOUDY 35 26 69 NW13G21 29.90S WCI 26 MILLVILLE CLOUDY 39 25 57 NW23G35 29.93S WCI 28 ATLANTIC CITY CLOUDY 37 26 64 NW23G31 29.91R WCI 26 WRIGHTSTOWN CLOUDY 36 27 70 NW10 29.89S WCI 28 TOMS RIVER PTSUNNY 36 25 64 NW20G28 29.89F WCI 25 BELMAR MOSUNNY 36 23 60 NW21G28 29.87S WCI 24 $$ PAZ047>061-062-071-301700- EASTERN PENNSYLVANIA CITY SKY/WX TMP DP RH WIND PRES REMARKS PHILADELPHIA PTSUNNY 39 22 50 NW24G30 29.95R WCI 28 ALLENTOWN CLOUDY 35 22 58 NW15 29.92R WCI 25 SCRANTON LGT SNOW 30 22 72 NW14 29.91S WCI 19 $$ CTZ002-004>006-009-010-012-RIZ004-006-007-MAZ004-011-015-301700- SOUTHERN NEW ENGLAND IN CT CITY SKY/WX TMP DP RH WIND PRES REMARKS BRADLEY INTL LGT SNOW 32 27 81 W5 29.80F WCI 27 HARTFORD LGT SNOW 32 29 88 SW7 29.82F FOG WCI 26 DANBURY CLOUDY 30 24 78 NW6 29.83F WCI 24 WTRBRY/OXFORD LGT SNOW 21 28 100 NW6 29.80F FOG WCI 14 BRIDGEPORT CLOUDY 32 29 88 NW6 29.83F WCI 26 MERIDEN LGT SNOW 32 27 81 NW9 29.81F WCI 24 NEW HAVEN CLOUDY 33 30 88 NW8 29.81F WCI 26 CHESTER LGT SNOW 32 30 93 NW14 29.79F WCI 22 GROTON LGT SNOW 32 31 96 NW10 29.79F VSB 1 WCI 24 WILLIMANTIC LGT SNOW 32 29 88 VRB3 29.80F VSB 1 IN RI CITY SKY/WX TMP DP RH WIND PRES REMARKS PROVIDENCE LGT SNOW 34 32 92 CALM 29.78F VSB 3/4 BLOCK ISLAND CLOUDY 34 30 86 NW9 29.78S WCI 26 WESTERLY LGT SNOW 33 31 92 NW6 29.80S FOG WCI 28 IN MA CITY SKY/WX TMP DP RH WIND PRES REMARKS BOSTON LGT SNOW 33 31 92 SW7 29.79F FOG WCI 27 WORCESTER LGT SNOW 29 26 89 W10 29.73F FOG WCI 20 WESTFIELD LGT SNOW 30 27 88 SW3 29.80F FOG PROVINCETOWN CLOUDY 36 34 93 SW7 29.79 WCI 30 NANTUCKET LGT RAIN 40 38 93 S3 29.77F FOG $$ ANZ330-335-338-340-345-350-353-355-301700- COASTAL MARINE OBSERVATIONS STATION/POSITION TIME SKY/WX TEMP WIND PRES VSBY WAVE AIR SEA DIR/SP/G HT/PER (UTC) (F) (DEG/KT/KT) (MB) (MI) (FT/S) NY HARB ENTRANCE 1600 34 40 300/ 21/ 25 1010.4 3/ 3 4S FIRE IS 1600 37 N/A 4/ 6 20S FIRE ISLAND 1500 42 1010.4 4/ 6 23SW MTP 1600 N/A 4/ 6 HUDSON CANYON NOT AVBL EXECUTION ROCKS 1600 32 33 300/ 12/ 16 N/A WESTERN LI SOUND 1600 32 310/ 10/ 12 N/A 0 CENTRAL LI SOUND 1500 31 35 290/ 14/ 16 N/A 1 EASTERN LI SOUND NOT AVBL ROBBINS REEF 1600 33 310/ 14/ 17 1010.3 $$ >>>>>>>>>>>>>>>>>>>>>>>>>>>> KEY <<<<<<<<<<<<<<<<<<<<<<<<<<< > < > SKY/WX - SKY CONDITION/PRESENT WEATHER < > TMP - TEMPERATURE IN FAHRENHEIT < > DP - DEWPOINT IN FAHRENHEIT < > RH - RELATIVE HUMIDITY IN PERCENT < > WIND - DIRECTION AND SPEED IN MPH < > PRES - MEAN SEA LEVEL PRESSURE IN INCHES OF HG < > WCI - WIND CHILL INDEX < > VSB - VISIBILITY IN MILES < > HX - HEAT INDEX < > TC - TEMPERATURE IN CELSIUS < > VRB - VARIABLE WIND DIRECTION < > < >>>>>>>>>>>>>>>>>>>>>>>>>>>> KEY <<<<<<<<<<<<<<<<<<<<<<<<<<<

USA.gov is the U.S. government's official web portal to all federal, state and local government web resources and services.